Weather History for KSBN - March, 2014

Change the Weather History Date:

Thursday, March 27, 2014

  Actual Average Record
Temperature  
Mean Temperature 43 °F 42 °F  
Max Temperature 52 °F 51 °F 82 °F (1907)
Min Temperature 34 °F 32 °F 4 °F (1965)
Degree Days  
Heating Degree Days 22 23  
Month to date heating degree days 981 765  
Since 1 July heating degree days 6164 5454  
Cooling Degree Days 0 0  
Month to date cooling degree days 0 0  
Year to date cooling degree days 0 0  
Moisture  
Dew Point 29 °F    
Average Humidity 57    
Maximum Humidity 76    
Minimum Humidity 37    
Precipitation  
Precipitation 0.12 in 0.08 in 1.88 in (1914)
Month to date precipitation 1.65 2.08  
Year to date precipitation 7.59 6.32  
Snow  
Snow 0.00 in 0.20 in 5.00 in (1934)
Month to date snowfall 6.7  
Since 1 July snowfall 64.8  
Snow Depth -    
Sea Level Pressure  
Sea Level Pressure 29.86 in    
Wind  
Wind Speed 15 mph (South)    
Max Wind Speed 26 mph    
Max Gust Speed 35 mph    
Visibility 10 miles    
Events Rain    
T = Trace of Precipitation, MM = Missing Value Source: NWS Daily Summary

Daily Weather History Graph

Daily Weather History Graph

Search for Another Location

Airport or City:

Trip Planner

Search our weather history database for the weather conditions in past years. The results will help you decide how hot, cold, wet, or windy it might be!

Date:

Astronomy

Mar. 27, 2014 Rise Set
Actual Time 7:36 AM EDT 8:05 PM EDT
Civil Twilight 7:08 AM EDT 8:33 PM EDT
Nautical Twilight 6:35 AM EDT 9:06 PM EDT
Astronomical Twilight 6:02 AM EDT 9:39 PM EDT
Moon 5:30 AM EDT (3/27) 4:49 PM EDT (3/27)
Length of Visible Light 13h 24m
Length of Day
12h 28m
Waning Crescent, 13% of the Moon is Illuminated
Mar 27
Waning Crescent
Mar 30
New
Apr 7
First Quarter
Apr 15
Full
Apr 22
Last Quarter

Hourly Weather History & Observations

Time (EDT) Temp. Windchill Dew Point Humidity Pressure Visibility Wind Dir Wind Speed Gust Speed Precip Events Conditions
12:54 AM 36.0 °F 26.7 °F 15.1 °F 43% 30.09 in 10.0 mi South 15.0 mph - N/A   Overcast
1:54 AM 37.0 °F 26.7 °F 14.0 °F 39% 30.08 in 10.0 mi SSW 19.6 mph - N/A   Overcast
2:54 AM 37.0 °F 28.1 °F 14.0 °F 39% 30.06 in 10.0 mi South 15.0 mph - N/A   Overcast
3:54 AM 37.0 °F 28.9 °F 15.1 °F 41% 30.03 in 10.0 mi South 12.7 mph - N/A   Scattered Clouds
4:54 AM 37.0 °F 27.7 °F 15.1 °F 41% 30.02 in 10.0 mi South 16.1 mph - N/A   Overcast
5:54 AM 39.0 °F 31.4 °F 15.1 °F 38% 30.00 in 10.0 mi South 12.7 mph - N/A   Overcast
6:54 AM 36.0 °F 27.1 °F 24.1 °F 62% 30.00 in 10.0 mi South 13.8 mph - 0.00 in Rain Light Rain
7:54 AM 35.1 °F 25.5 °F 27.0 °F 72% 29.99 in 7.0 mi South 15.0 mph - 0.02 in Rain Light Rain
8:54 AM 35.1 °F 26.4 °F 28.0 °F 76% 29.97 in 10.0 mi SSE 12.7 mph - 0.01 in   Overcast
9:45 AM 36.0 °F 26.7 °F 28.0 °F 73% 29.93 in 9.0 mi South 15.0 mph - 0.00 in Rain Light Rain
9:54 AM 36.0 °F 26.0 °F 28.0 °F 73% 29.94 in 10.0 mi South 17.3 mph 26.5 mph 0.00 in Rain Light Rain
10:54 AM 37.9 °F 27.9 °F 28.9 °F 70% 29.93 in 10.0 mi South 19.6 mph 24.2 mph 0.00 in   Overcast
11:18 AM 37.9 °F 28.2 °F 30.0 °F 73% 29.90 in 10.0 mi South 18.4 mph 34.5 mph 0.00 in Rain Light Rain
11:54 AM 37.9 °F 28.2 °F 32.0 °F 79% 29.90 in 7.0 mi South 18.4 mph 29.9 mph 0.00 in Rain Light Rain
12:34 PM 39.0 °F 29.3 °F 34.0 °F 82% 29.87 in 10.0 mi South 19.6 mph - 0.01 in   Overcast
12:54 PM 39.9 °F 30.0 °F 33.1 °F 77% 29.88 in 10.0 mi SSW 21.9 mph 32.2 mph 0.01 in   Overcast
1:54 PM 37.9 °F 28.2 °F 33.1 °F 83% 29.85 in 9.0 mi South 18.4 mph 27.6 mph 0.01 in Rain Light Rain
2:09 PM 39.0 °F 30.3 °F 32.0 °F 76% 29.82 in 10.0 mi South 16.1 mph - 0.00 in   Overcast
2:52 PM 39.2 °F 29.8 °F 30.2 °F 70% 29.79 in 10.0 mi South 18.4 mph 26.5 mph 0.00 in   Overcast
2:54 PM 39.9 °F 30.2 °F 32.0 °F 73% 29.81 in 10.0 mi South 20.7 mph 27.6 mph 0.00 in   Overcast
3:54 PM 42.8 °F 35.1 °F 35.6 °F 76% 29.76 in 10.0 mi South 16.1 mph - N/A   Overcast
4:54 PM 42.1 °F 34.5 °F 36.0 °F 79% 29.75 in 10.0 mi South 15.0 mph - 0.00 in Rain Light Rain
5:14 PM 43.0 °F 36.8 °F 37.0 °F 80% 29.71 in 10.0 mi South 11.5 mph - 0.00 in   Overcast
5:54 PM 44.1 °F 37.1 °F 36.0 °F 73% 29.71 in 10.0 mi South 15.0 mph - 0.00 in   Overcast
6:54 PM 45.0 °F 38.9 °F 36.0 °F 71% 29.69 in 10.0 mi South 12.7 mph - N/A   Overcast
7:54 PM 46.0 °F 40.6 °F 36.0 °F 68% 29.67 in 10.0 mi South 11.5 mph - 0.00 in   Overcast
8:54 PM 46.0 °F 40.2 °F 37.0 °F 71% 29.65 in 9.0 mi South 12.7 mph - 0.00 in Rain Light Rain
9:16 PM 45.0 °F 38.5 °F 39.0 °F 80% 29.64 in 5.0 mi South 13.8 mph - 0.04 in Rain Rain
9:36 PM 45.0 °F 38.9 °F 39.9 °F 82% 29.62 in 10.0 mi South 12.7 mph - 0.05 in   Overcast
10:54 PM 48.0 °F - 39.9 °F 74% 29.59 in 10.0 mi South 11.5 mph 21.9 mph N/A   Overcast